Time,TemperatureF,DewpointF,PressureIn,WindDirection,WindDirectionDegrees,WindSpeedMPH,WindSpeedGustMPH,Humidity,HourlyPrecipIn,Conditions,Clouds,dailyrainin,SoftwareType,DateUTC
2013-04-16 00:00:00,39.0,31.4,30.28,North,0,0.0,3.0,74,0.00,,,-99.99,Weather View 32 v60,2013-04-16 05:00:00,
2013-04-16 00:30:00,39.0,31.4,30.29,WNW,292,0.0,10.0,74,0.00,,,-99.99,Weather View 32 v60,2013-04-16 05:30:00,
2013-04-16 01:00:00,38.0,31.1,30.29,NW,315,0.0,10.0,76,0.00,,,-99.99,Weather View 32 v60,2013-04-16 06:00:00,
2013-04-16 01:30:00,37.0,30.1,30.28,North,0,0.0,8.0,76,0.00,,,-99.99,Weather View 32 v60,2013-04-16 06:30:00,
2013-04-16 02:00:00,36.0,29.5,30.29,NNW,338,0.0,8.0,77,0.00,,,-99.99,Weather View 32 v60,2013-04-16 07:00:00,
2013-04-16 02:30:00,35.0,29.1,30.30,NNW,338,0.0,1.0,79,0.00,,,-99.99,Weather View 32 v60,2013-04-16 07:30:00,
2013-04-16 03:00:00,35.0,29.5,30.31,NW,315,0.0,1.0,80,0.00,,,-99.99,Weather View 32 v60,2013-04-16 08:00:00,
2013-04-16 03:30:00,35.0,29.8,30.32,NNW,338,0.0,1.0,81,0.00,,,-99.99,Weather View 32 v60,2013-04-16 08:30:00,
2013-04-16 04:00:00,34.0,29.7,30.33,NW,315,0.0,1.0,84,0.00,,,-99.99,Weather View 32 v60,2013-04-16 09:00:00,
2013-04-16 04:30:00,33.0,28.7,30.35,NW,315,0.0,1.0,84,0.00,,,-99.99,Weather View 32 v60,2013-04-16 09:30:00,
2013-04-16 05:00:00,33.0,29.3,30.35,NW,315,0.0,0.0,86,0.00,,,-99.99,Weather View 32 v60,2013-04-16 10:00:00,
2013-04-16 05:30:00,34.0,30.3,30.36,West,270,0.0,0.0,86,0.00,,,-99.99,Weather View 32 v60,2013-04-16 10:30:00,
2013-04-16 06:00:00,34.0,30.3,30.37,NW,315,0.0,0.0,86,0.00,,,-99.99,Weather View 32 v60,2013-04-16 11:00:00,
2013-04-16 06:30:00,35.0,30.9,30.38,WNW,292,0.0,1.0,85,0.00,,,-99.99,Weather View 32 v60,2013-04-16 11:30:00,
2013-04-16 07:00:00,36.0,31.6,30.41,WNW,292,0.0,1.0,84,0.00,,,-99.99,Weather View 32 v60,2013-04-16 12:00:00,
2013-04-16 07:30:00,36.0,31.0,30.42,NNW,338,0.0,7.0,82,0.00,,,-99.99,Weather View 32 v60,2013-04-16 12:30:00,
2013-04-16 08:00:00,37.0,31.1,30.43,NNW,338,0.0,12.0,79,0.00,,,-99.99,Weather View 32 v60,2013-04-16 13:00:00,
2013-04-16 08:30:00,38.0,31.4,30.43,NNE,22,0.0,12.0,77,0.00,,,-99.99,Weather View 32 v60,2013-04-16 13:30:00,
2013-04-16 09:00:00,38.0,31.1,30.45,NNE,22,3.0,14.0,76,0.00,,,-99.99,Weather View 32 v60,2013-04-16 14:00:00,
2013-04-16 09:30:00,39.0,31.4,30.46,ENE,68,0.0,16.0,74,0.00,,,-99.99,Weather View 32 v60,2013-04-16 14:30:00,
2013-04-16 10:00:00,40.0,32.0,30.46,North,0,0.0,16.0,73,0.00,,,-99.99,Weather View 32 v60,2013-04-16 15:00:00,
2013-04-16 10:30:00,40.0,32.0,30.47,NE,45,1.0,13.0,73,0.00,,,-99.99,Weather View 32 v60,2013-04-16 15:30:00,
2013-04-16 11:00:00,42.0,33.3,30.47,NE,45,0.0,18.0,71,0.00,,,-99.99,Weather View 32 v60,2013-04-16 16:00:00,
2013-04-16 11:30:00,43.0,32.4,30.48,SE,135,0.0,18.0,66,0.00,,,-99.99,Weather View 32 v60,2013-04-16 16:30:00,
2013-04-16 12:00:00,44.0,33.0,30.48,NE,45,0.0,15.0,65,0.00,,,-99.99,Weather View 32 v60,2013-04-16 17:00:00,
2013-04-16 12:30:00,45.0,33.1,30.49,NW,315,0.0,15.0,63,0.00,,,-99.99,Weather View 32 v60,2013-04-16 17:30:00,
2013-04-16 13:00:00,46.0,32.9,30.49,NNE,22,9.0,17.0,60,0.00,,,-99.99,Weather View 32 v60,2013-04-16 18:00:00,
2013-04-16 13:30:00,48.0,33.9,30.49,East,90,0.0,17.0,58,0.00,,,-99.99,Weather View 32 v60,2013-04-16 18:30:00,
2013-04-16 14:00:00,48.0,32.6,30.49,NNE,22,5.0,12.0,55,0.00,,,-99.99,Weather View 32 v60,2013-04-16 19:00:00,
2013-04-16 14:30:00,49.0,33.0,30.48,ENE,68,0.0,15.0,54,0.00,,,-99.99,Weather View 32 v60,2013-04-16 19:30:00,
2013-04-16 15:00:00,49.0,32.6,30.48,ENE,68,0.0,15.0,53,0.00,,,-99.99,Weather View 32 v60,2013-04-16 20:00:00,
2013-04-16 15:30:00,51.0,33.5,30.48,NNW,338,0.0,14.0,51,0.00,,,-99.99,Weather View 32 v60,2013-04-16 20:30:00,
2013-04-16 16:00:00,52.0,29.0,29.64,North,0,4.0,16.0,41,0.00,,,-99.99,Weather View 32 v60,2013-04-16 21:00:00,
2013-04-16 16:30:00,51.0,33.0,30.49,NE,45,0.0,13.0,50,0.00,,,-99.99,Weather View 32 v60,2013-04-16 21:30:00,
2013-04-16 17:00:00,51.0,32.5,30.49,NNE,22,0.0,13.0,49,0.00,,,-99.99,Weather View 32 v60,2013-04-16 22:00:00,
2013-04-16 17:30:00,51.0,33.5,30.50,NE,45,0.0,8.0,51,0.00,,,-99.99,Weather View 32 v60,2013-04-16 22:30:00,
2013-04-16 18:00:00,50.0,32.6,30.50,NE,45,0.0,11.0,51,0.00,,,-99.99,Weather View 32 v60,2013-04-16 23:00:00,
2013-04-16 18:30:00,49.0,33.0,30.51,East,90,0.0,11.0,54,0.00,,,-99.99,Weather View 32 v60,2013-04-16 23:30:00,
2013-04-16 19:00:00,47.0,33.4,30.52,East,90,1.0,13.0,59,0.00,,,-99.99,Weather View 32 v60,2013-04-17 00:00:00,
2013-04-16 19:30:00,45.0,32.3,30.53,East,90,0.0,13.0,61,0.00,,,-99.99,Weather View 32 v60,2013-04-17 00:30:00,
2013-04-16 20:00:00,44.0,32.2,30.54,ENE,68,0.0,12.0,63,0.00,,,-99.99,Weather View 32 v60,2013-04-17 01:00:00,
2013-04-16 20:30:00,43.0,32.4,30.55,ENE,68,0.0,5.0,66,0.00,,,-99.99,Weather View 32 v60,2013-04-17 01:30:00,
2013-04-16 21:00:00,41.0,32.0,30.56,NE,45,0.0,0.0,70,0.00,,,-99.99,Weather View 32 v60,2013-04-17 02:00:00,
2013-04-16 21:30:00,39.0,32.1,30.58,NE,45,0.0,0.0,76,0.00,,,-99.99,Weather View 32 v60,2013-04-17 02:30:00,
2013-04-16 22:00:00,39.0,33.0,30.58,ENE,68,0.0,0.0,79,0.00,,,-99.99,Weather View 32 v60,2013-04-17 03:00:00,
2013-04-16 22:30:00,38.0,32.7,30.58,East,90,0.0,0.0,81,0.00,,,-99.99,Weather View 32 v60,2013-04-17 03:30:00,
2013-04-16 23:00:00,39.0,33.0,30.59,East,90,0.0,0.0,79,0.00,,,-99.99,Weather View 32 v60,2013-04-17 04:00:00,
2013-04-16 23:30:00,39.0,33.0,30.60,NNE,22,0.0,0.0,79,0.00,,,-99.99,Weather View 32 v60,2013-04-17 04:30:00,